Plum, TX

5:18 AM CST on February 22, 2017 (GMT -0600)
La Grange

Weather History for K3T5 - November, 2012

Change the Weather History Date:

Wednesday, November 7, 2012

  Actual Average (KAUS) Record (KAUS)
Temperature  
Mean Temperature 66 °F -  
Max Temperature 82 °F 70 °F 88 °F (1975)
Min Temperature 50 °F 49 °F 30 °F (1959)
Cooling Degree Days 1    
Growing Degree Days 16 (Base 50)    
Moisture  
Dew Point 51 °F    
Average Humidity 68    
Maximum Humidity 100    
Minimum Humidity 28    
Precipitation  
Precipitation 0.00 in - - ()
Sea Level Pressure  
Sea Level Pressure 30.10 in    
Wind  
Wind Speed 1 mph (East)    
Max Wind Speed 6 mph    
Max Gust Speed -    
Visibility 10 miles    
Events      
Averages and records for this station are not official NWS values.
T = Trace of Precipitation, MM = Missing Value Source: NWS Daily Summary

Daily Weather History Graph

Daily Weather History Graph

Search for Another Location

Airport or City:

Trip Planner

Search our weather history database for the weather conditions in past years. The results will help you decide how hot, cold, wet, or windy it might be!

Date:

Astronomy

Nov. 07, 2012 Rise Set
Actual Time 6:46 AM CST 5:36 PM CST
Civil Twilight 6:21 AM CST 6:00 PM CST
Nautical Twilight 5:53 AM CST 6:29 PM CST
Astronomical Twilight 5:24 AM CST 6:57 PM CST
Moon 12:11 AM CST (11/7) 1:18 PM CST (11/7)
Length of Visible Light 11h 39m
Length of Day
10h 49m
Last Quarter, 43% of the Moon is Illuminated
Nov 7
Last Quarter
Nov 13
New
Nov 20
First Quarter
Nov 28
Full
Dec 6
Last Quarter

Hourly Weather History & Observations

Time (CST) Temp. Dew Point Humidity Pressure Visibility Wind Dir Wind Speed Gust Speed Precip Events Conditions
12:15 AM 57.2 °F 50.0 °F 77% 30.10 in 10.0 mi Calm Calm - N/A   Clear
12:35 AM 55.4 °F 51.8 °F 88% 30.10 in 10.0 mi Calm Calm - N/A   Clear
12:55 AM 55.4 °F 50.0 °F 82% 30.10 in 10.0 mi WSW 4.6 mph - N/A   Clear
1:15 AM 55.4 °F 51.8 °F 88% 30.10 in 10.0 mi Calm Calm - N/A   Clear
1:35 AM 55.4 °F 50.0 °F 82% 30.10 in 10.0 mi Calm Calm - N/A   Clear
1:55 AM 53.6 °F 50.0 °F 88% 30.11 in 10.0 mi Calm Calm - N/A   Clear
2:15 AM 53.6 °F 50.0 °F 88% 30.11 in 10.0 mi Calm Calm - N/A   Clear
2:55 AM 51.8 °F 50.0 °F 94% 30.09 in 10.0 mi Calm Calm - N/A   Clear
3:15 AM 51.8 °F 50.0 °F 94% 30.09 in 10.0 mi Calm Calm - N/A   Clear
3:35 AM 51.8 °F 50.0 °F 94% 30.09 in 10.0 mi Calm Calm - N/A   Clear
3:55 AM 51.8 °F 50.0 °F 94% 30.09 in 10.0 mi Calm Calm - N/A   Clear
4:15 AM 51.8 °F 50.0 °F 94% 30.09 in 10.0 mi Calm Calm - N/A   Clear
4:35 AM 51.8 °F 50.0 °F 94% 30.09 in 10.0 mi Calm Calm - N/A   Clear
4:55 AM 51.8 °F 50.0 °F 94% 30.09 in 10.0 mi Calm Calm - N/A   Clear
5:15 AM 51.8 °F 50.0 °F 94% 30.09 in 10.0 mi Calm Calm - N/A   Clear
5:35 AM 50.0 °F 50.0 °F 100% 30.11 in 10.0 mi Calm Calm - N/A   Clear
5:55 AM 50.0 °F 50.0 °F 100% 30.11 in 10.0 mi Calm Calm - N/A   Clear
6:15 AM 50.0 °F 48.2 °F 94% 30.12 in 10.0 mi Calm Calm - N/A   Clear
6:35 AM 50.0 °F 48.2 °F 94% 30.12 in 10.0 mi Calm Calm - N/A   Clear
6:55 AM 50.0 °F 48.2 °F 94% 30.13 in 10.0 mi Calm Calm - N/A   Clear
7:15 AM 50.0 °F 48.2 °F 94% 30.14 in 10.0 mi Calm Calm - N/A   Clear
7:35 AM 51.8 °F 50.0 °F 94% 30.15 in 10.0 mi Calm Calm - N/A   Clear
7:55 AM 53.6 °F 51.8 °F 94% 30.16 in 10.0 mi Calm Calm - N/A   Clear
8:15 AM 57.2 °F 51.8 °F 82% 30.16 in 10.0 mi Calm Calm - N/A   Clear
8:35 AM 59.0 °F 51.8 °F 77% 30.17 in 7.0 mi Calm Calm - N/A   Clear
8:55 AM 60.8 °F 51.8 °F 72% 30.17 in 10.0 mi NNW 3.5 mph - N/A   Clear
9:15 AM 62.6 °F 53.6 °F 72% 30.17 in 10.0 mi Calm Calm - N/A   Clear
9:35 AM 64.4 °F 51.8 °F 64% 30.18 in 10.0 mi Calm Calm - N/A   Clear
9:55 AM 66.2 °F 51.8 °F 60% 30.18 in 10.0 mi Calm Calm - N/A   Clear
10:15 AM 68.0 °F 51.8 °F 56% 30.17 in 10.0 mi Calm Calm - N/A   Clear
10:35 AM 69.8 °F 51.8 °F 53% 30.17 in 10.0 mi Calm Calm - N/A   Clear
10:55 AM 71.6 °F 51.8 °F 50% 30.16 in 10.0 mi Calm Calm - N/A   Clear
11:15 AM 73.4 °F 48.2 °F 41% 30.16 in 10.0 mi NE 4.6 mph - N/A   Clear
11:35 AM 75.2 °F 50.0 °F 41% 30.15 in 10.0 mi East 3.5 mph - N/A   Clear
11:55 AM 77.0 °F 50.0 °F 39% 30.14 in 7.0 mi ESE 3.5 mph - N/A   Clear
12:15 PM 77.0 °F 50.0 °F 39% 30.12 in 10.0 mi ESE 3.5 mph - N/A   Clear
12:35 PM 78.8 °F 48.2 °F 34% 30.11 in 10.0 mi SE 5.8 mph - N/A   Clear
12:55 PM 78.8 °F 48.2 °F 34% 30.09 in 10.0 mi East 4.6 mph - N/A   Clear
1:15 PM 78.8 °F 48.2 °F 34% 30.09 in 7.0 mi East 4.6 mph - N/A   Clear
1:35 PM 80.6 °F 48.2 °F 32% 30.07 in 10.0 mi East 4.6 mph - N/A   Clear
1:55 PM 80.6 °F 46.4 °F 30% 30.07 in 10.0 mi East 3.5 mph - N/A   Clear
2:15 PM 80.6 °F 46.4 °F 30% 30.06 in 10.0 mi East 4.6 mph - N/A   Clear
2:35 PM 80.6 °F 46.4 °F 30% 30.06 in 10.0 mi Calm Calm - N/A   Clear
2:55 PM 80.6 °F 46.4 °F 30% 30.06 in 7.0 mi East 4.6 mph - N/A   Clear
3:15 PM 82.4 °F 46.4 °F 28% 30.06 in 10.0 mi East 3.5 mph - N/A   Clear
3:35 PM 82.4 °F 48.2 °F 30% 30.05 in 10.0 mi Calm Calm - N/A   Clear
3:55 PM 82.4 °F 48.2 °F 30% 30.05 in 10.0 mi Calm Calm - N/A   Clear
4:15 PM 80.6 °F 46.4 °F 30% 30.05 in 10.0 mi Calm Calm - N/A   Clear
4:35 PM 82.4 °F 48.2 °F 30% 30.05 in 10.0 mi Calm Calm - N/A   Clear
4:55 PM 80.6 °F 50.0 °F 34% 30.05 in 10.0 mi Calm Calm - N/A   Clear
5:15 PM 78.8 °F 53.6 °F 42% 30.05 in 10.0 mi Calm Calm - N/A   Clear
5:35 PM 71.6 °F 57.2 °F 60% 30.05 in 10.0 mi Calm Calm - N/A   Clear
5:55 PM 69.8 °F 57.2 °F 64% 30.06 in 10.0 mi Calm Calm - N/A   Clear
6:15 PM 66.2 °F 55.4 °F 68% 30.06 in 10.0 mi Calm Calm - N/A   Clear
6:35 PM 66.2 °F 57.2 °F 73% 30.06 in 10.0 mi Calm Calm - N/A   Clear
6:55 PM 64.4 °F 57.2 °F 77% 30.07 in 10.0 mi Calm Calm - N/A   Clear
7:15 PM 64.4 °F 55.4 °F 73% 30.08 in 10.0 mi Calm Calm - N/A   Clear
7:35 PM 64.4 °F 55.4 °F 73% 30.08 in 10.0 mi Calm Calm - N/A   Clear
7:55 PM 62.6 °F 57.2 °F 82% 30.08 in 10.0 mi Calm Calm - N/A   Clear
8:15 PM 62.6 °F 55.4 °F 77% 30.09 in 10.0 mi Calm Calm - N/A   Clear
8:35 PM 62.6 °F 53.6 °F 72% 30.09 in 10.0 mi Calm Calm - N/A   Clear
8:55 PM 60.8 °F 53.6 °F 77% 30.09 in 10.0 mi Calm Calm - N/A   Clear
9:15 PM 60.8 °F 53.6 °F 77% 30.09 in 10.0 mi Calm Calm - N/A   Clear
9:35 PM 60.8 °F 53.6 °F 77% 30.10 in 7.0 mi Calm Calm - N/A   Clear
9:55 PM 60.8 °F 53.6 °F 77% 30.10 in 10.0 mi Calm Calm - N/A   Clear
10:15 PM 62.6 °F 53.6 °F 72% 30.09 in 10.0 mi Calm Calm - N/A   Clear
10:35 PM 60.8 °F 53.6 °F 77% 30.10 in 10.0 mi Calm Calm - N/A   Clear
10:55 PM 60.8 °F 53.6 °F 77% 30.10 in 10.0 mi Calm Calm - N/A   Clear
11:15 PM 60.8 °F 55.4 °F 82% 30.09 in 10.0 mi Calm Calm - N/A   Clear
11:35 PM 59.0 °F 53.6 °F 82% 30.09 in 10.0 mi Calm Calm - N/A   Clear
11:55 PM 59.0 °F 53.6 °F 82% 30.09 in 10.0 mi Calm Calm - N/A   Clear